Location: Newark
(37.9128°N, 122.4756°W)
Time: 02:51:38
(UTC+00:00)

X-37B - Pass Details

Date: 05 March 2021
Orbit: 380 x 394 km, 45.0° (Epoch: 07 April)

Event Time Altitude Azimuth Distance (km) Brightness Sun altitude
Exits shadow 13:02:21 14° 176° (S) 1,217 3.0 -19.1°
Drops below altitude 10° 13:03:00 10° 167° (SSE) 1,412 3.5 -19.0°
Sets 13:05:22 0° 151° (SSE) 2,260 4.8 -18.5°
